Location: ???????
(54.9567°N, 38.2836°E)
Time: 01:26:00
(UTC+00:00)

Cosmos 1536 - Pass Details

Date: 14 April 2024
Orbit: 514 x 543 km, 82.6° (Epoch: 18 May)

Event Time Altitude Azimuth Distance (km) Brightness Sun altitude
Rises 00:25:26 0° 344° (NNW) 2,684 6.7 -15.5°
Reaches altitude 10° 00:27:40 10° 338° (NNW) 1,784 5.7 -15.3°
Maximum altitude 00:31:23 45° 266° (W) 730 3.1 -14.9°
Enters shadow 00:33:09 26° 209° (SSW) 1,057 3.7 -14.7°
